| time (UTC) | temp C | wind direction | speed KPH | gust KPH | rain 1hr cm | rain 24hr cm | rain mn cm | humidity % | barometer mb |
| 20260507105744 | 5 | 76 | 0.0 | 3.2 | 0.00 | 0.00 | 0.00 | 61 | 1214.9 |
| 20260507105713 | 5 | 76 | 0.0 | 3.2 | 0.00 | 0.00 | 0.00 | 63 | 1214.9 |
| 20260507104733 | 5 | 100 | 0.0 | 3.2 | 0.00 | 0.00 | 0.00 | 64 | 1214.9 |
| 20260507104227 | 5 | 94 | 0.0 | 3.2 | 0.00 | 0.00 | 0.00 | 62 | 1214.9 |
| 20260507103716 | 4 | 67 | 0.0 | 3.2 | 0.00 | 0.00 | 0.00 | 63 | 1214.9 |
| 20260507103215 | 4 | 58 | 0.0 | 3.2 | 0.00 | 0.00 | 0.00 | 65 | 1214.9 |
| 20260507103155 | 4 | 75 | 0.0 | 3.2 | 0.00 | 0.00 | 0.00 | 66 | 1215.2 |
| 20260507102202 | 4 | 84 | 0.0 | 3.2 | 0.00 | 0.00 | 0.00 | 67 | 1215.2 |
| 20260507101652 | 4 | 71 | 0.0 | 3.2 | 0.00 | 0.00 | 0.00 | 67 | 1215.2 |
| 20260507101146 | 5 | 40 | 0.0 | 3.2 | 0.00 | 0.00 | 0.00 | 66 | 1215.2 |
| 20260507100640 | 5 | 128 | 0.0 | 3.2 | 0.00 | 0.00 | 0.00 | 66 | 1215.2 |
| 20260507100138 | 5 | 128 | 0.0 | 3.2 | 0.00 | 0.00 | 0.00 | 66 | 1215.0 |
| 20260507095632 | 5 | 128 | 0.0 | 3.2 | 0.00 | 0.00 | 0.00 | 66 | 1215.0 |
| 20260507095126 | 5 | 123 | 0.0 | 1.6 | 0.00 | 0.00 | 0.00 | 66 | 1215.0 |
| 20260507094620 | 5 | 113 | 0.0 | 1.6 | 0.00 | 0.00 | 0.00 | 66 | 1215.0 |
| 20260507094332 | 5 | 113 | 0.0 | 3.2 | 0.00 | 0.00 | 0.00 | 66 | 1215.0 |
| 20260507093605 | 5 | 113 | 0.0 | 3.2 | 0.00 | 0.00 | 0.00 | 65 | 1215.0 |
| 20260507093102 | 5 | 124 | 0.0 | 0.0 | 0.00 | 0.00 | 0.00 | 65 | 1215.0 |
| 20260507092556 | 5 | 124 | 0.0 | 1.6 | 0.00 | 0.00 | 0.00 | 66 | 1215.0 |
| 20260507092050 | 5 | 124 | 0.0 | 1.6 | 0.00 | 0.00 | 0.00 | 66 | 1215.0 |
| 20260507091544 | 5 | 123 | 0.0 | 0.0 | 0.00 | 0.00 | 0.00 | 66 | 1215.2 |
| 20260507091034 | 5 | 123 | 0.0 | 0.0 | 0.00 | 0.00 | 0.00 | 65 | 1215.2 |
| 20260507090528 | 5 | 123 | 0.0 | 3.2 | 0.00 | 0.00 | 0.00 | 64 | 1215.2 |
| 20260507090247 | 5 | 123 | 0.0 | 3.2 | 0.00 | 0.00 | 0.00 | 63 | 1215.2 |
| 20260507085520 | 5 | 125 | 0.0 | 1.6 | 0.00 | 0.00 | 0.00 | 63 | 1215.2 |
| 20260507085014 | 5 | 125 | 0.0 | 0.0 | 0.00 | 0.00 | 0.00 | 62 | 1215.2 |
| 20260507084511 | 6 | 125 | 0.0 | 0.0 | 0.00 | 0.00 | 0.00 | 62 | 1215.2 |
| 20260507084011 | 6 | 125 | 0.0 | 0.0 | 0.00 | 0.00 | 0.00 | 62 | 1215.2 |
| 20260507083509 | 6 | 125 | 0.0 | 3.2 | 0.00 | 0.00 | 0.00 | 62 | 1215.2 |
| 20260507083231 | 6 | 125 | 0.0 | 3.2 | 0.00 | 0.00 | 0.00 | 61 | 1215.2 |
| 20260507082505 | 6 | 128 | 0.0 | 1.6 | 0.00 | 0.00 | 0.00 | 61 | 1215.2 |
| 20260507082006 | 6 | 115 | 0.0 | 0.0 | 0.00 | 0.00 | 0.00 | 60 | 1215.2 |
| 20260507081506 | 6 | 115 | 0.0 | 0.0 | 0.00 | 0.00 | 0.00 | 60 | 1215.2 |
| 20260507081006 | 6 | 115 | 0.0 | 0.0 | 0.00 | 0.00 | 0.00 | 59 | 1215.2 |
| 20260507080506 | 6 | 115 | 0.0 | 0.0 | 0.00 | 0.00 | 0.00 | 60 | 1215.2 |
| 20260507080005 | 6 | 115 | 0.0 | 0.0 | 0.00 | 0.00 | 0.00 | 60 | 1215.2 |
| 20260507075506 | 6 | 115 | 0.0 | 0.0 | 0.00 | 0.00 | 0.00 | 59 | 1215.2 |
| 20260507075000 | 6 | 115 | 0.0 | 0.0 | 0.00 | 0.00 | 0.00 | 59 | 1215.2 |
| 20260507074451 | 6 | 115 | 0.0 | 0.0 | 0.00 | 0.00 | 0.00 | 58 | 1215.2 |
| 20260507073949 | 6 | 115 | 0.0 | 0.0 | 0.00 | 0.00 | 0.00 | 59 | 1215.2 |
| 20260507073449 | 6 | 115 | 0.0 | 3.2 | 0.00 | 0.00 | 0.00 | 59 | 1215.2 |
| 20260507072949 | 6 | 115 | 0.0 | 3.2 | 0.00 | 0.00 | 0.00 | 59 | 1215.2 |
| 20260507072450 | 7 | 115 | 0.0 | 3.2 | 0.00 | 0.00 | 0.00 | 59 | 1215.2 |
| 20260507071951 | 7 | 116 | 0.0 | 3.2 | 0.00 | 0.00 | 0.00 | 58 | 1215.2 |
| 20260507071449 | 7 | 61 | 0.0 | 0.0 | 0.00 | 0.00 | 0.00 | 57 | 1215.2 |
| 20260507070949 | 7 | 61 | 0.0 | 0.0 | 0.00 | 0.00 | 0.00 | 57 | 1215.2 |
| 20260507070450 | 7 | 61 | 0.0 | 3.2 | 0.00 | 0.00 | 0.00 | 56 | 1215.2 |
| 20260507065944 | 7 | 61 | 0.0 | 3.2 | 0.00 | 0.00 | 0.00 | 57 | 1215.0 |
| 20260507065654 | 7 | 84 | 0.0 | 3.2 | 0.00 | 0.00 | 0.00 | 57 | 1215.0 |
| 20260507064925 | 7 | 5 | 0.0 | 0.0 | 0.00 | 0.00 | 0.00 | 56 | 1215.0 |
| 20260507064423 | 7 | 5 | 0.0 | 0.0 | 0.00 | 0.00 | 0.00 | 57 | 1214.9 |
| 20260507063917 | 7 | 5 | 0.0 | 0.0 | 0.00 | 0.00 | 0.00 | 56 | 1214.9 |
| 20260507063641 | 7 | 5 | 0.0 | 1.6 | 0.00 | 0.00 | 0.00 | 56 | 1214.9 |
| 20260507062901 | 7 | 5 | 0.0 | 3.2 | 0.00 | 0.00 | 0.00 | 56 | 1214.7 |
| 20260507062355 | 7 | 131 | 0.0 | 3.2 | 0.00 | 0.00 | 0.00 | 55 | 1214.7 |
| 20260507061854 | 8 | 143 | 0.0 | 3.2 | 0.00 | 0.00 | 0.00 | 55 | 1214.7 |
| 20260507061344 | 8 | 181 | 0.0 | 3.2 | 0.00 | 0.00 | 0.00 | 53 | 1214.6 |
| 20260507060841 | 8 | 188 | 0.0 | 3.2 | 0.00 | 0.00 | 0.00 | 53 | 1214.6 |
| 20260507060335 | 8 | 189 | 0.0 | 0.0 | 0.00 | 0.00 | 0.00 | 52 | 1214.6 |
| 20260507055830 | 8 | 189 | 0.0 | 0.0 | 0.00 | 0.00 | 0.00 | 52 | 1214.6 |
| 20260507055319 | 8 | 189 | 0.0 | 0.0 | 0.00 | 0.00 | 0.00 | 53 | 1214.6 |
| 20260507054813 | 8 | 189 | 0.0 | 0.0 | 0.00 | 0.00 | 0.00 | 52 | 1214.6 |
| 20260507054534 | 8 | 189 | 0.0 | 0.0 | 0.00 | 0.00 | 0.00 | 52 | 1214.6 |
| 20260507054026 | 8 | 189 | 0.0 | 0.0 | 0.00 | 0.00 | 0.00 | 51 | 1214.6 |
| 20260507053531 | 9 | 189 | 0.0 | 0.0 | 0.00 | 0.00 | 0.00 | 52 | 1214.6 |
| 20260507052748 | 9 | 189 | 0.0 | 3.2 | 0.00 | 0.00 | 0.00 | 51 | 1214.5 |
| 20260507052247 | 9 | 192 | 0.0 | 3.2 | 0.00 | 0.00 | 0.00 | 50 | 1214.5 |
| 20260507051736 | 9 | 295 | 0.0 | 0.0 | 0.00 | 0.00 | 0.00 | 49 | 1214.5 |
| 20260507051231 | 9 | 294 | 0.0 | 1.6 | 0.00 | 0.00 | 0.00 | 49 | 1214.5 |
| 20260507050730 | 10 | 294 | 0.0 | 1.6 | 0.00 | 0.00 | 0.00 | 49 | 1214.5 |
| 20260507050224 | 10 | 247 | 0.0 | 0.0 | 0.00 | 0.00 | 0.00 | 49 | 1214.5 |
| 20260507045718 | 10 | 247 | 0.0 | 0.0 | 0.00 | 0.00 | 0.00 | 48 | 1214.3 |
| 20260507045212 | 10 | 247 | 0.0 | 0.0 | 0.00 | 0.00 | 0.00 | 47 | 1214.3 |
| 20260507044930 | 10 | 247 | 0.0 | 0.0 | 0.00 | 0.00 | 0.00 | 46 | 1214.3 |
| 20260507044155 | 10 | 247 | 0.0 | 0.0 | 0.00 | 0.00 | 0.00 | 45 | 1214.1 |
| 20260507043653 | 11 | 247 | 0.0 | 0.0 | 0.00 | 0.00 | 0.00 | 46 | 1214.1 |
| 20260507043148 | 11 | 247 | 0.0 | 0.0 | 0.00 | 0.00 | 0.00 | 46 | 1214.0 |
| 20260507042641 | 11 | 247 | 0.0 | 0.0 | 0.00 | 0.00 | 0.00 | 45 | 1214.0 |
| 20260507042131 | 11 | 247 | 0.0 | 0.0 | 0.00 | 0.00 | 0.00 | 44 | 1214.0 |
| 20260507041629 | 11 | 247 | 0.0 | 0.0 | 0.00 | 0.00 | 0.00 | 43 | 1213.9 |
| 20260507041119 | 12 | 247 | 0.0 | 0.0 | 0.00 | 0.00 | 0.00 | 43 | 1213.9 |
| 20260507040612 | 12 | 247 | 0.0 | 0.0 | 0.00 | 0.00 | 0.00 | 43 | 1213.9 |
| 20260507040111 | 12 | 247 | 0.0 | 0.0 | 0.00 | 0.00 | 0.00 | 43 | 1213.7 |
| 20260507035606 | 12 | 247 | 0.0 | 0.0 | 0.00 | 0.00 | 0.00 | 43 | 1213.7 |
| 20260507035100 | 13 | 247 | 0.0 | 0.0 | 0.00 | 0.00 | 0.00 | 43 | 1213.7 |
| 20260507034815 | 13 | 247 | 0.0 | 0.0 | 0.00 | 0.00 | 0.00 | 41 | 1213.4 |
| 20260507034047 | 13 | 247 | 0.0 | 0.0 | 0.00 | 0.00 | 0.00 | 41 | 1213.4 |
| 20260507033541 | 13 | 247 | 0.0 | 0.0 | 0.00 | 0.00 | 0.00 | 39 | 1213.4 |
| 20260507033031 | 14 | 247 | 0.0 | 0.0 | 0.00 | 0.00 | 0.00 | 38 | 1213.3 |
| 20260507032529 | 14 | 247 | 0.0 | 0.0 | 0.00 | 0.00 | 0.00 | 38 | 1213.3 |
| 20260507032019 | 15 | 247 | 0.0 | 0.0 | 0.00 | 0.00 | 0.00 | 36 | 1213.3 |
| 20260507031741 | 15 | 247 | 0.0 | 3.2 | 0.00 | 0.00 | 0.00 | 37 | 1212.8 |
| 20260507031012 | 15 | 247 | 0.0 | 3.2 | 0.00 | 0.00 | 0.00 | 37 | 1212.8 |
| 20260507030506 | 16 | 263 | 0.0 | 0.0 | 0.00 | 0.00 | 0.00 | 35 | 1212.8 |
| 20260507025959 | 16 | 263 | 0.0 | 0.0 | 0.00 | 0.00 | 0.00 | 34 | 1212.6 |
| 20260507025713 | 16 | 263 | 0.0 | 0.0 | 0.00 | 0.00 | 0.00 | 33 | 1212.6 |
| 20260507024947 | 17 | 266 | 0.0 | 3.2 | 0.00 | 0.00 | 0.00 | 32 | 1212.6 |
| 20260507024656 | 17 | 273 | 0.0 | 3.2 | 0.00 | 0.00 | 0.00 | 30 | 1212.3 |
| 20260507023935 | 17 | 273 | 0.0 | 3.2 | 0.00 | 0.00 | 0.00 | 30 | 1212.3 |
| 20260507023429 | 18 | 273 | 0.0 | 3.2 | 0.00 | 0.00 | 0.00 | 29 | 1212.3 |
| 20260507022919 | 18 | 283 | 0.0 | 0.0 | 0.00 | 0.00 | 0.00 | 28 | 1212.2 |
| 20260507022416 | 18 | 284 | 0.0 | 3.2 | 0.00 | 0.00 | 0.00 | 28 | 1212.2 |
| 20260507021911 | 19 | 284 | 0.0 | 3.2 | 0.00 | 0.00 | 0.00 | 27 | 1212.2 |
| 20260507021405 | 19 | 235 | 0.0 | 3.2 | 0.00 | 0.00 | 0.00 | 27 | 1211.9 |
| 20260507020855 | 19 | 246 | 0.0 | 4.8 | 0.00 | 0.00 | 0.00 | 27 | 1211.9 |
| 20260507020353 | 20 | 242 | 1.6 | 8.0 | 0.00 | 0.00 | 0.00 | 26 | 1211.9 |
| 20260507015851 | 20 | 263 | 1.6 | 8.0 | 0.00 | 0.00 | 0.00 | 26 | 1211.7 |
| 20260507015348 | 20 | 196 | 0.0 | 6.4 | 0.00 | 0.00 | 0.00 | 26 | 1211.7 |
| 20260507014847 | 20 | 223 | 0.0 | 6.4 | 0.00 | 0.00 | 0.00 | 25 | 1211.7 |
| 20260507014608 | 21 | 267 | 0.0 | 6.4 | 0.00 | 0.00 | 0.00 | 26 | 1211.6 |
| 20260507013847 | 21 | 246 | 1.6 | 6.4 | 0.00 | 0.00 | 0.00 | 25 | 1211.6 |
| 20260507013347 | 21 | 0 | 3.2 | 11.3 | 0.00 | 0.00 | 0.00 | 25 | 1211.6 |
| 20260507012848 | 21 | 224 | 6.4 | 11.3 | 0.00 | 0.00 | 0.00 | 26 | 1211.6 |
| 20260507012350 | 21 | 191 | 6.4 | 17.7 | 0.00 | 0.00 | 0.00 | 24 | 1211.6 |
| 20260507011850 | 22 | 196 | 6.4 | 17.7 | 0.00 | 0.00 | 0.00 | 24 | 1211.6 |
| 20260507011349 | 22 | 217 | 8.0 | 17.7 | 0.00 | 0.00 | 0.00 | 24 | 1211.5 |
| 20260507011344 | 22 | 205 | 8.0 | 17.7 | 0.00 | 0.00 | 0.00 | 23 | 1211.5 |
| 20260507010347 | 23 | 251 | 6.4 | 16.1 | 0.00 | 0.00 | 0.00 | 23 | 1211.5 |
| 20260507005848 | 23 | 174 | 6.4 | 16.1 | 0.00 | 0.00 | 0.00 | 23 | 1211.3 |
| 20260507005349 | 23 | 180 | 6.4 | 12.9 | 0.00 | 0.00 | 0.00 | 23 | 1211.3 |
| 20260507004846 | 23 | 193 | 6.4 | 16.1 | 0.00 | 0.00 | 0.00 | 23 | 1211.3 |
| 20260507004345 | 23 | 195 | 6.4 | 16.1 | 0.00 | 0.00 | 0.00 | 20 | 1211.1 |
| 20260507003845 | 23 | 248 | 4.8 | 16.1 | 0.00 | 0.00 | 0.00 | 21 | 1211.1 |
| 20260507003609 | 23 | 235 | 4.8 | 16.1 | 0.00 | 0.00 | 0.00 | 21 | 1211.1 |
| 20260507002848 | 23 | 246 | 6.4 | 16.1 | 0.00 | 0.00 | 0.00 | 21 | 1211.1 |
| 20260507002341 | 24 | 218 | 4.8 | 12.9 | 0.00 | 0.00 | 0.00 | 20 | 1211.1 |
| 20260507001841 | 24 | 224 | 6.4 | 14.5 | 0.00 | 0.00 | 0.00 | 20 | 1211.1 |
| 20260507001334 | 24 | 227 | 6.4 | 14.5 | 0.00 | 0.00 | 0.00 | 20 | 1211.0 |
| 20260507001058 | 24 | 195 | 6.4 | 16.1 | 0.00 | 0.00 | 0.00 | 21 | 1211.0 |
| 20260507000317 | 24 | 224 | 4.8 | 16.1 | 0.00 | 0.00 | 0.00 | 21 | 1211.0 |
| 20260506235816 | 23 | 249 | 4.8 | 14.5 | 0.00 | 0.00 | 0.00 | 22 | 1211.0 |
| 20260506235801 | 23 | 306 | 3.2 | 12.9 | 0.00 | 0.00 | 0.00 | 21 | 1211.0 |
| 20260506234800 | 23 | 284 | 3.2 | 9.7 | 0.00 | 0.00 | 0.00 | 21 | 1211.0 |
| 20260506234258 | 23 | 329 | 3.2 | 9.7 | 0.00 | 0.00 | 0.00 | 21 | 1211.1 |
| 20260506234234 | 23 | 237 | 3.2 | 9.7 | 0.00 | 0.00 | 0.00 | 20 | 1211.1 |
| 20260506233246 | 23 | 200 | 3.2 | 9.7 | 0.00 | 0.00 | 0.00 | 21 | 1211.1 |
| 20260506232956 | 23 | 269 | 3.2 | 9.7 | 0.00 | 0.00 | 0.00 | 22 | 1211.1 |
| 20260506232234 | 23 | 267 | 4.8 | 17.7 | 0.00 | 0.00 | 0.00 | 21 | 1211.1 |
| 20260506231728 | 24 | 231 | 4.8 | 17.7 | 0.00 | 0.00 | 0.00 | 21 | 1211.1 |
| 20260506231217 | 24 | 258 | 3.2 | 12.9 | 0.00 | 0.00 | 0.00 | 21 | 1211.3 |
| 20260506230715 | 24 | 224 | 3.2 | 17.7 | 0.00 | 0.00 | 0.00 | 19 | 1211.3 |
| 20260506230203 | 25 | 250 | 4.8 | 17.7 | 0.00 | 0.00 | 0.00 | 20 | 1211.3 |
| 20260506225704 | 25 | 272 | 4.8 | 14.5 | 0.00 | 0.00 | 0.00 | 21 | 1211.3 |
| 20260506225158 | 25 | 190 | 6.4 | 22.5 | 0.00 | 0.00 | 0.00 | 19 | 1211.3 |
| 20260506224647 | 25 | 241 | 6.4 | 22.5 | 0.00 | 0.00 | 0.00 | 20 | 1211.5 |
| 20260506224146 | 25 | 200 | 6.4 | 17.7 | 0.00 | 0.00 | 0.00 | 19 | 1211.5 |
| 20260506223636 | 25 | 186 | 8.0 | 17.7 | 0.00 | 0.00 | 0.00 | 21 | 1211.5 |
| 20260506223134 | 25 | 196 | 8.0 | 20.9 | 0.00 | 0.00 | 0.00 | 21 | 1211.6 |
| 20260506222853 | 25 | 240 | 6.4 | 20.9 | 0.00 | 0.00 | 0.00 | 21 | 1211.6 |
| 20260506222344 | 25 | 297 | 4.8 | 14.5 | 0.00 | 0.00 | 0.00 | 22 | 1211.6 |
| 20260506221616 | 25 | 254 | 6.4 | 19.3 | 0.00 | 0.00 | 0.00 | 20 | 1211.7 |
| 20260506221109 | 25 | 190 | 6.4 | 19.3 | 0.00 | 0.00 | 0.00 | 20 | 1211.7 |
| 20260506220604 | 25 | 280 | 4.8 | 14.5 | 0.00 | 0.00 | 0.00 | 20 | 1211.7 |
| 20260506220054 | 25 | 302 | 4.8 | 14.5 | 0.00 | 0.00 | 0.00 | 21 | 1211.9 |
| 20260506215547 | 24 | 234 | 6.4 | 16.1 | 0.00 | 0.00 | 0.00 | 20 | 1211.9 |
| 20260506215046 | 25 | 225 | 4.8 | 16.1 | 0.00 | 0.00 | 0.00 | 20 | 1211.9 |
| 20260506214539 | 25 | 96 | 4.8 | 16.1 | 0.00 | 0.00 | 0.00 | 21 | 1212.2 |
| 20260506214250 | 25 | 242 | 6.4 | 16.1 | 0.00 | 0.00 | 0.00 | 20 | 1212.2 |
| 20260506213522 | 25 | 260 | 8.0 | 17.7 | 0.00 | 0.00 | 0.00 | 22 | 1212.2 |
| 20260506213021 | 25 | 225 | 8.0 | 20.9 | 0.00 | 0.00 | 0.00 | 21 | 1212.3 |
| 20260506212510 | 24 | 209 | 6.4 | 20.9 | 0.00 | 0.00 | 0.00 | 22 | 1212.3 |
| 20260506212010 | 24 | 209 | 4.8 | 19.3 | 0.00 | 0.00 | 0.00 | 20 | 1212.3 |
| 20260506211503 | 24 | 225 | 4.8 | 19.3 | 0.00 | 0.00 | 0.00 | 21 | 1212.5 |
| 20260506211218 | 24 | 223 | 4.8 | 16.1 | 0.00 | 0.00 | 0.00 | 22 | 1212.5 |
| 20260506210452 | 24 | 248 | 6.4 | 16.1 | 0.00 | 0.00 | 0.00 | 22 | 1212.5 |
| 20260506205942 | 23 | 195 | 4.8 | 14.5 | 0.00 | 0.00 | 0.00 | 21 | 1212.7 |
| 20260506205440 | 23 | 251 | 4.8 | 12.9 | 0.00 | 0.00 | 0.00 | 23 | 1212.7 |
| 20260506204928 | 24 | 333 | 4.8 | 12.9 | 0.00 | 0.00 | 0.00 | 21 | 1212.7 |
| 20260506204428 | 24 | 214 | 3.2 | 29.0 | 0.00 | 0.00 | 0.00 | 22 | 1212.7 |
| 20260506203921 | 24 | 223 | 4.8 | 29.0 | 0.00 | 0.00 | 0.00 | 22 | 1212.7 |
| 20260506203416 | 24 | 274 | 6.4 | 29.0 | 0.00 | 0.00 | 0.00 | 23 | 1212.7 |
| 20260506203133 | 24 | 244 | 6.4 | 29.0 | 0.00 | 0.00 | 0.00 | 24 | 1212.8 |
| 20260506202643 | 24 | 296 | 6.4 | 16.1 | 0.00 | 0.00 | 0.00 | 22 | 1212.8 |
| 20260506201910 | 23 | 250 | 6.4 | 16.1 | 0.00 | 0.00 | 0.00 | 24 | 1212.8 |
| 20260506201409 | 23 | 265 | 6.4 | 16.1 | 0.00 | 0.00 | 0.00 | 22 | 1212.8 |
| 20260506200909 | 23 | 259 | 6.4 | 16.1 | 0.00 | 0.00 | 0.00 | 24 | 1212.8 |
| 20260506200410 | 23 | 191 | 8.0 | 16.1 | 0.00 | 0.00 | 0.00 | 23 | 1212.8 |
| 20260506195909 | 23 | 202 | 6.4 | 16.1 | 0.00 | 0.00 | 0.00 | 23 | 1213.1 |
| 20260506195408 | 23 | 225 | 4.8 | 16.1 | 0.00 | 0.00 | 0.00 | 25 | 1213.1 |
| 20260506194906 | 23 | 239 | 4.8 | 17.7 | 0.00 | 0.00 | 0.00 | 25 | 1213.1 |
| 20260506194408 | 23 | 193 | 4.8 | 17.7 | 0.00 | 0.00 | 0.00 | 23 | 1213.1 |
| 20260506193909 | 23 | 226 | 6.4 | 17.7 | 0.00 | 0.00 | 0.00 | 24 | 1213.1 |
| 20260506193630 | 22 | 238 | 6.4 | 17.7 | 0.00 | 0.00 | 0.00 | 25 | 1213.1 |
| 20260506192908 | 22 | 217 | 3.2 | 16.1 | 0.00 | 0.00 | 0.00 | 26 | 1213.1 |
| 20260506192410 | 22 | 279 | 3.2 | 14.5 | 0.00 | 0.00 | 0.00 | 25 | 1213.1 |
| 20260506191903 | 22 | 290 | 3.2 | 14.5 | 0.00 | 0.00 | 0.00 | 25 | 1213.1 |
| 20260506191612 | 22 | 327 | 3.2 | 11.3 | 0.00 | 0.00 | 0.00 | 26 | 1213.3 |
| 20260506190852 | 22 | 340 | 3.2 | 11.3 | 0.00 | 0.00 | 0.00 | 25 | 1213.3 |
| 20260506190352 | 22 | 271 | 3.2 | 11.3 | 0.00 | 0.00 | 0.00 | 25 | 1213.3 |
| 20260506185852 | 22 | 257 | 3.2 | 11.3 | 0.00 | 0.00 | 0.00 | 27 | 1213.3 |
| 20260506185351 | 21 | 317 | 3.2 | 9.7 | 0.00 | 0.00 | 0.00 | 30 | 1213.3 |
| 20260506184851 | 21 | 317 | 3.2 | 12.9 | 0.00 | 0.00 | 0.00 | 26 | 1213.3 |
| 20260506184351 | 21 | 296 | 4.8 | 12.9 | 0.00 | 0.00 | 0.00 | 28 | 1213.4 |
| 20260506183853 | 21 | 234 | 3.2 | 11.3 | 0.00 | 0.00 | 0.00 | 26 | 1213.4 |
| 20260506183620 | 21 | 210 | 3.2 | 11.3 | 0.00 | 0.00 | 0.00 | 26 | 1213.4 |
| 20260506183104 | 21 | 222 | 3.2 | 11.3 | 0.00 | 0.00 | 0.00 | 27 | 1213.4 |
| 20260506182816 | 21 | 278 | 3.2 | 11.3 | 0.00 | 0.00 | 0.00 | 28 | 1213.4 |
| 20260506181824 | 21 | 247 | 1.6 | 11.3 | 0.00 | 0.00 | 0.00 | 29 | 1213.4 |
| 20260506181753 | 20 | 317 | 1.6 | 6.4 | 0.00 | 0.00 | 0.00 | 29 | 1213.5 |
| 20260506180807 | 20 | 337 | 3.2 | 12.9 | 0.00 | 0.00 | 0.00 | 30 | 1213.5 |
| 20260506180257 | 20 | 256 | 4.8 | 11.3 | 0.00 | 0.00 | 0.00 | 30 | 1213.5 |
| 20260506175749 | 20 | 261 | 3.2 | 12.9 | 0.00 | 0.00 | 0.00 | 28 | 1213.7 |
| 20260506175249 | 20 | 298 | 3.2 | 12.9 | 0.00 | 0.00 | 0.00 | 30 | 1213.7 |
| 20260506174743 | 20 | 0 | 4.8 | 16.1 | 0.00 | 0.00 | 0.00 | 29 | 1213.7 |
| 20260506174237 | 20 | 250 | 3.2 | 16.1 | 0.00 | 0.00 | 0.00 | 31 | 1213.8 |
| 20260506173731 | 20 | 240 | 3.2 | 12.9 | 0.00 | 0.00 | 0.00 | 31 | 1213.8 |
| 20260506173225 | 20 | 154 | 3.2 | 9.7 | 0.00 | 0.00 | 0.00 | 30 | 1213.8 |
| 20260506172938 | 20 | 247 | 1.6 | 8.0 | 0.00 | 0.00 | 0.00 | 30 | 1213.8 |
| 20260506172654 | 19 | 260 | 3.2 | 8.0 | 0.00 | 0.00 | 0.00 | 32 | 1213.8 |
| 20260506171707 | 18 | 200 | 1.6 | 11.3 | 0.00 | 0.00 | 0.00 | 32 | 1213.8 |
| 20260506171201 | 18 | 233 | 1.6 | 11.3 | 0.00 | 0.03 | 0.00 | 35 | 1213.7 |
| 20260506170654 | 18 | 329 | 1.6 | 11.3 | 0.00 | 0.03 | 0.00 | 34 | 1213.7 |
| 20260506170144 | 17 | 338 | 3.2 | 11.3 | 0.00 | 0.05 | 0.00 | 34 | 1213.5 |
| 20260506165914 | 17 | 326 | 3.2 | 9.7 | 0.00 | 0.08 | 0.00 | 34 | 1213.5 |
| 20260506165137 | 17 | 321 | 3.2 | 9.7 | 0.00 | 0.10 | 0.00 | 34 | 1213.5 |
| 20260506164632 | 17 | 234 | 3.2 | 8.0 | 0.00 | 0.10 | 0.00 | 34 | 1213.4 |
| 20260506164121 | 17 | 266 | 3.2 | 9.7 | 0.00 | 0.10 | 0.00 | 34 | 1213.4 |
| 20260506163846 | 17 | 267 | 4.8 | 14.5 | 0.00 | 0.10 | 0.00 | 33 | 1213.4 |
| 20260506163109 | 17 | 241 | 6.4 | 14.5 | 0.00 | 0.13 | 0.00 | 35 | 1213.4 |
| 20260506162831 | 17 | 269 | 6.4 | 14.5 | 0.00 | 0.13 | 0.00 | 35 | 1213.4 |
| 20260506162102 | 17 | 251 | 4.8 | 14.5 | 0.00 | 0.13 | 0.00 | 36 | 1213.4 |
| 20260506161812 | 17 | 237 | 3.2 | 9.7 | 0.00 | 0.15 | 0.00 | 35 | 1213.4 |
| 20260506161050 | 16 | 236 | 1.6 | 8.0 | 0.00 | 0.15 | 0.00 | 39 | 1213.4 |
| 20260506160807 | 16 | 24 | 1.6 | 8.0 | 0.00 | 0.15 | 0.00 | 38 | 1213.4 |
| 20260506160038 | 16 | 328 | 1.6 | 6.4 | 0.00 | 0.15 | 0.00 | 39 | 1213.3 |
| 20260506155528 | 16 | 246 | 1.6 | 6.4 | 0.00 | 0.15 | 0.00 | 40 | 1213.3 |
| 20260506155025 | 15 | 341 | 1.6 | 6.4 | 0.00 | 0.15 | 0.00 | 44 | 1213.3 |
| 20260506154520 | 15 | 330 | 1.6 | 4.8 | 0.00 | 0.25 | 0.00 | 47 | 1213.4 |
| 20260506154232 | 14 | 181 | 0.0 | 3.2 | 0.00 | 0.28 | 0.00 | 42 | 1213.4 |
| 20260506153458 | 14 | 53 | 1.6 | 6.4 | 0.00 | 0.33 | 0.00 | 43 | 1213.4 |
| 20260506152957 | 14 | 248 | 1.6 | 6.4 | 0.00 | 0.33 | 0.00 | 49 | 1213.3 |
| 20260506152712 | 13 | 11 | 1.6 | 6.4 | 0.00 | 0.33 | 0.00 | 44 | 1213.3 |
| 20260506151946 | 13 | 330 | 0.0 | 6.4 | 0.00 | 0.33 | 0.00 | 50 | 1213.3 |
| 20260506151439 | 13 | 15 | 0.0 | 3.2 | 0.00 | 0.33 | 0.00 | 52 | 1213.3 |
| 20260506150927 | 12 | 34 | 0.0 | 3.2 | 0.00 | 0.33 | 0.00 | 50 | 1213.3 |
| 20260506150427 | 12 | 355 | 0.0 | 3.2 | 0.00 | 0.33 | 0.00 | 58 | 1213.3 |
| 20260506145922 | 11 | 244 | 0.0 | 4.8 | 0.00 | 0.33 | 0.00 | 56 | 1213.3 |
| 20260506145415 | 11 | 210 | 1.6 | 4.8 | 0.00 | 0.33 | 0.00 | 59 | 1213.3 |
| 20260506144905 | 10 | 99 | 0.0 | 3.2 | 0.00 | 0.33 | 0.00 | 59 | 1213.3 |
| 20260506144358 | 10 | 111 | 0.0 | 3.2 | 0.00 | 0.33 | 0.00 | 64 | 1213.3 |
| 20260506144343 | 8 | 139 | 0.0 | 3.2 | 0.00 | 0.33 | 0.00 | 68 | 1213.3 |
| 20260506143347 | 8 | 123 | 0.0 | 3.2 | 0.00 | 0.33 | 0.00 | 72 | 1213.3 |
| 20260506142841 | 7 | 58 | 0.0 | 3.2 | 0.00 | 0.33 | 0.00 | 78 | 1213.3 |
| 20260506142335 | 6 | 25 | 0.0 | 3.2 | 0.00 | 0.33 | 0.00 | 84 | 1213.3 |
| 20260506141825 | 5 | 99 | 0.0 | 1.6 | 0.00 | 0.33 | 0.00 | 91 | 1213.3 |
| 20260506141323 | 5 | 105 | 0.0 | 1.6 | 0.00 | 0.33 | 0.00 | 94 | 1213.2 |
| 20260506140817 | 4 | 132 | 0.0 | 0.0 | 0.00 | 0.33 | 0.00 | 94 | 1213.2 |
| 20260506140307 | 4 | 132 | 0.0 | 3.2 | 0.00 | 0.33 | 0.00 | 94 | 1213.2 |
| 20260506135805 | 3 | 135 | 0.0 | 3.2 | 0.00 | 0.33 | 0.00 | 94 | 1213.0 |
| 20260506135526 | 2 | 126 | 0.0 | 0.0 | 0.00 | 0.33 | 0.00 | 93 | 1213.0 |
| 20260506134748 | 1 | 183 | 0.0 | 0.0 | 0.00 | 0.33 | 0.00 | 93 | 1213.0 |
| 20260506134729 | 1 | 183 | 0.0 | 0.0 | 0.00 | 0.33 | 0.00 | 92 | 1212.8 |
| 20260506133747 | 0 | 183 | 0.0 | 0.0 | 0.00 | 0.33 | 0.00 | 91 | 1212.8 |
| 20260506133246 | 0 | 183 | 0.0 | 0.0 | 0.00 | 0.33 | 0.00 | 90 | 1212.8 |
| 20260506133008 | 0 | 183 | 0.0 | 0.0 | 0.00 | 0.33 | 0.00 | 89 | 1212.7 |
| 20260506132505 | 0 | 183 | 0.0 | 0.0 | 0.00 | 0.33 | 0.00 | 88 | 1212.7 |
| 20260506131744 | 0 | 183 | 0.0 | 0.0 | 0.00 | 0.33 | 0.00 | 88 | 1212.7 |
| 20260506131244 | 0 | 183 | 0.0 | 0.0 | 0.00 | 0.33 | 0.00 | 87 | 1212.5 |
| 20260506131012 | 0 | 183 | 0.0 | 0.0 | 0.00 | 0.33 | 0.00 | 87 | 1212.5 |
| 20260506130511 | 0 | 183 | 0.0 | 0.0 | 0.00 | 0.33 | 0.00 | 87 | 1212.5 |
| 20260506125746 | 0 | 183 | 0.0 | 0.0 | 0.00 | 0.33 | 0.00 | 87 | 1212.2 |
| 20260506125246 | 0 | 183 | 0.0 | 0.0 | 0.00 | 0.33 | 0.00 | 87 | 1212.2 |
| 20260506125008 | 0 | 183 | 0.0 | 0.0 | 0.00 | 0.33 | 0.00 | 87 | 1212.2 |
| 20260506124245 | 0 | 183 | 0.0 | 0.0 | 0.00 | 0.33 | 0.00 | 87 | 1212.2 |
| 20260506123744 | 0 | 183 | 0.0 | 0.0 | 0.00 | 0.33 | 0.00 | 87 | 1212.2 |
| 20260506123245 | 0 | 183 | 0.0 | 0.0 | 0.00 | 0.33 | 0.00 | 87 | 1212.2 |
| 20260506122745 | 0 | 183 | 0.0 | 0.0 | 0.00 | 0.33 | 0.00 | 87 | 1211.8 |
| 20260506122244 | 0 | 183 | 0.0 | 0.0 | 0.00 | 0.33 | 0.00 | 87 | 1211.8 |
| 20260506122229 | 0 | 183 | 0.0 | 0.0 | 0.00 | 0.33 | 0.00 | 87 | 1211.8 |
| 20260506121616 | 0 | 183 | 0.0 | 0.0 | 0.00 | 0.33 | 0.00 | 87 | 1211.7 |
| 20260506121527 | 0 | 183 | 0.0 | 0.0 | 0.00 | 0.33 | 0.00 | 87 | 1211.7 |
| 20260506120233 | 0 | 183 | 0.0 | 0.0 | 0.00 | 0.33 | 0.00 | 87 | 1211.7 |
| 20260506115727 | 0 | 183 | 0.0 | 0.0 | 0.00 | 0.33 | 0.00 | 87 | 1211.7 |
| 20260506115450 | 0 | 183 | 0.0 | 0.0 | 0.00 | 0.33 | 0.00 | 87 | 1211.7 |
| 20260506114945 | 0 | 183 | 0.0 | 0.0 | 0.00 | 0.33 | 0.00 | 87 | 1211.7 |
| 20260506114215 | 0 | 183 | 0.0 | 0.0 | 0.00 | 0.33 | 0.00 | 87 | 1211.8 |
| 20260506113703 | 0 | 183 | 0.0 | 0.0 | 0.00 | 0.33 | 0.00 | 87 | 1211.8 |
| 20260506113203 | 0 | 183 | 0.0 | 0.0 | 0.00 | 0.33 | 0.00 | 87 | 1211.8 |
| 20260506112652 | 0 | 183 | 0.0 | 0.0 | 0.00 | 0.33 | 0.00 | 86 | 1211.8 |
| 20260506112146 | 0 | 183 | 0.0 | 0.0 | 0.00 | 0.33 | 0.00 | 85 | 1211.8 |
| 20260506111645 | 0 | 183 | 0.0 | 0.0 | 0.00 | 0.33 | 0.00 | 85 | 1211.6 |
| 20260506111139 | 0 | 183 | 0.0 | 0.0 | 0.00 | 0.33 | 0.00 | 84 | 1211.6 |
| 20260506110632 | 0 | 183 | 0.0 | 0.0 | 0.00 | 0.33 | 0.00 | 84 | 1211.6 |
| 20260506110121 | 0 | 183 | 0.0 | 0.0 | 0.00 | 0.33 | 0.00 | 84 | 1211.6 |